Location: McFarlands Corners
(41.4117°N, 81.3382°W)
Time: 08:33:53
(UTC+00:00)

Vanguard 1 Rocket - Pass Details

Date: 22 February 2026
Orbit: 653 x 4214 km, 34.3° (Epoch: 12 March)

Event Time Altitude Azimuth Distance (km) Brightness Sun altitude
Rises 16:26:18 0° 213° (SSW) 3,405 10.8 35.9°
Reaches altitude 10° 16:28:42 10° 201° (SSW) 2,715 10.6 36.1°
Maximum altitude 16:34:12 28° 143° (SE) 2,266 11.3 36.5°
Drops below altitude 10° 16:43:06 10° 90° (E) 4,514 11.2 37.0°
Sets 16:48:31 0° 81° (E) 6,180 11.7 37.3°
